Погода в Балтийске

Россия / Калининградская область     54°38′38″N   19°53′31″E
темп.,
°C
ветер,
м/с
пор.,
м/с
влажн.,
%
обл.,
%
осадки,
мм/ч
давл.,
гПа
погр.,
м
13 июня, вс
вс1323:00+14зсз10157533 0.0 1007652
02:00+13зсз9148218 0.4 1007545
05:00+14сз11178610 1.5 1008779
08:00+14сз9138418 2.2 1011763
11:00+15сз8107723 0.2 1014556
14:00+16сз810735 0.4 1016714
17:00+16ссз79715 0.0 1018715
20:00+13ссз47790 0.0 1019402
14 июня, пн
пн1423:00+11ссз35825 0.0 1021130
02:00+11ссз22795 0.0 102138
05:00+11з12765 0.0 102132
08:00+15зюз22755 0.0 1021352
11:00+16зюз33695 0.0 1022575
14:00+17зюз33602 0.0 1021509
17:00+17зсз23595 0.0 1019351
20:00+15сз23795 0.0 101867
15 июня, вт
вт1523:00+14ю228085 0.0 101819
02:00+15ююз4682100 0.0 1017109
05:00+15юз4883100 0.0 1016174
08:00+15зюз5989100 0.2 1016358
11:00+15зсз6997100 2.5 1017503
14:00+16зсз687385 2.6 1018628
17:00+15сз58685 0.0 1018601
20:00+14сз48810 0.0 1018337
16 июня, ср
ср1623:00+13зсз478929 0.0 1019190
02:00+12з35905 0.0 1020125
05:00+13зюз46915 0.0 1020171
08:00+16зюз44784 0.0 1021337
11:00+17зюз33690 0.0 1022574
14:00+18сз32605 0.0 1022734
17:00+19с11590 0.0 1022625
20:00+17в34785 0.0 102264
17 июня, чт
чт1723:00+13вюв458347 0.0 102371
02:00+12юв46865 0.0 1023108
05:00+13юв35880 0.0 1023109
08:00+17юв34725 0.0 1023244
11:00+20юв34605 0.0 1023660
14:00+22юв34575 0.0 1023942
17:00+22вюв45594 0.0 1022843
20:00+20вюв48780 0.0 1021185